Simultaneous Nadir Overpasses (SNOs) Predictions

Prediction of SNOs over PacNW region [( 10.00, 139.50) to ( 22.70, 165.60)] between NOAA-19 and NPP Satellites:

Table of predicted SNOs over PacNW region for the next 30.0 days since TLE Epoch: 10/12/2012
Index Date (NOAA-19) Time (NOAA-19) NOAA-19 Lat,Lon Date (NPP) Time (NPP) NPP Lat,Lon Distance(km) Time Diff (sec)
1 10/21/2012 15:32:05 22.64, 154.14 10/21/2012 15:34:44 23.40, 150.85 346.65 159
2 10/22/2012 02:48:40 22.67, 157.56 10/22/2012 02:47:33 22.23, 155.29 238.86 67
3 11/03/2012 03:59:09 10.18, 142.09 11/03/2012 04:02:14 9.40, 138.73 378.54 185
4 11/03/2012 14:53:45 20.94, 163.45 11/03/2012 14:53:15 21.50, 160.87 274.43 30
5 11/04/2012 03:51:51 22.66, 141.80 11/04/2012 03:48:15 26.34, 139.34 479.96 216
